Home > Weather > Abu Dhabi > Past weeks

Flag for United Arab Emirates Weather for the Past 2 Weeks in Abu Dhabi, Abu Dhabi, United Arab Emirates

Now
79 °F

Sunny.


Feels Like: 78 °F
Forecast: 64 / 72 °F
Wind: 3 mph from Southeast

Location: Abu Dhabi Bateen Airport

Current Time: Feb 8, 2016 at 1:05:02 PM

Latest Report: Feb 8, 2016 at 12:00 PM


Visibility: 10 mi

Pressure: 30.07 "Hg

Humidity: 20%

Dew point: 34 °F

Location of Abu DhabiLocation

Historic Weather in Abu Dhabi — Graph

°F

Abu Dhabi Temperature Yesterday

Maximum temperature yesterday: 79 °F (at 3:00 PM)
Minimum temperature yesterday: 54 °F (at 8:00 AM)
Average temperature yesterday: 65 °F

High & Low Weather Summary for the Past Weeks

 TemperatureHumidityPressure
High84 °F (Jan 25, 2:00 PM)100% (Feb 7, 8:00 AM)30.27 "Hg (Feb 7, 8:00 AM)
Low54 °F (Feb 7, 8:00 AM)18% (Feb 7, 3:00 PM)29.92 "Hg (Jan 25, 3:00 PM)
Average67 °F60%30.10 "Hg
* Reported Jan 24 12:00 Noon — Feb 8 12:00 Noon, Abu Dhabi, Weather by CustomWeather, © 2016

Note: Actual official high and low records may vary slightly from our data, if they occured in-between our weather recording intervals... More about our weather records

Advertising

Abu Dhabi Weather History for the Previous 24 Hours

 ConditionsComfort  
Time TempWeatherWind HumidityBarometerVisibility
12:00 PM
Mon, Feb 8
79 °FSunny.3 mph20%30.07 "Hg10 mi
11:00 AM75 °FPassing clouds.7 mph29%30.07 "HgN/A
10:00 AM68 °FPassing clouds.6 mph46%30.09 "HgN/A
9:00 AM63 °FClear.6 mph64%30.07 "Hg6 mi
8:00 AM59 °FClear.2 mph77%30.07 "Hg4 mi
7:00 AM57 °FClear.3 mph77%30.04 "Hg4 mi
6:00 AM57 °FClear.6 mph82%30.01 "Hg5 mi
5:00 AM57 °FClear.7 mph82%30.01 "Hg10 mi
4:00 AM59 °FClear.6 mph77%30.01 "Hg10 mi
3:00 AM59 °FClear.3 mph77%30.01 "Hg10 mi
2:00 AM61 °FClear.3 mph72%30.01 "Hg10 mi
1:00 AM61 °FClear.5 mph72%30.01 "Hg10 mi
12:00 AM63 °FClear.5 mph68%30.04 "Hg10 mi
11:00 PM
Sun, Feb 7
64 °FClear.2 mph68%30.04 "Hg10 mi
10:00 PM64 °FClear.3 mph68%30.04 "Hg10 mi
9:00 PM66 °FClear.5 mph60%30.04 "Hg10 mi
8:00 PM68 °FPassing clouds.6 mph53%30.04 "HgN/A
7:00 PM68 °FClear.7 mph49%30.01 "Hg10 mi
6:00 PM72 °FPassing clouds.8 mph36%30.01 "HgN/A
5:00 PM73 °FPassing clouds.10 mph33%29.98 "HgN/A
4:00 PM73 °FSunny.9 mph44%29.98 "Hg10 mi
3:00 PM79 °FSunny.5 mph18%30.01 "Hg10 mi
2:00 PM77 °FPassing clouds.6 mph22%30.01 "HgN/A
1:00 PM73 °FSunny.3 mph44%30.04 "Hg10 mi
Weather by CustomWeather, © 2016

See weather overviewHow to use our weather pages